Hourly Data Report for January 08, 2019

TORONTO CITY
ONTARIO
Current Station Operator: ECCC - MSC

43°40'00.000" N
79°24'00.000" W
112.50 m
6158355
71508
XTO

Download Data

Hourly Data (January 2019)
Hourly Data Report for January 8, 2019
TIME
LST
Temp Definition
°C
Dew Point Definition
°C
Rel Hum Definition
%
Precip. Amount Definition
mm

Wind Dir Definition
10's deg

Wind Spd Definition
km/h
Visibility Definition
km
Stn Press Definition
kPa
Hmdx Definition


Wind Chill Definition


Weather Definition


00:00 4.3 2.3 87 0.5 LegendMM LegendMM   99.06     LegendNANA
01:00 5.6 3.3 85 0.0 LegendMM LegendMM   99.00     LegendNANA
02:00 6.3 3.2 81 0.0 LegendMM LegendMM   99.07     LegendNANA
03:00 6.0 4.0 87 0.0 LegendMM LegendMM   99.10     LegendNANA
04:00 7.7 5.9 89 0.0 LegendMM LegendMM   99.20     LegendNANA
05:00 7.9 3.6 74 0.0 LegendMM LegendMM   99.30     LegendNANA
06:00 6.6 2.6 76 0.0 LegendMM LegendMM   99.39     LegendNANA
07:00 5.8 2.3 78 0.0 LegendMM LegendMM   99.46     LegendNANA
08:00 5.4 1.6 77 0.0 LegendMM LegendMM   99.36     LegendNANA
09:00 5.6 1.9 77 0.0 LegendMM LegendMM   99.50     LegendNANA
10:00 6.4 2.4 75 0.0 LegendMM LegendMM   99.39     LegendNANA
11:00 6.6 1.7 71 0.0 LegendMM LegendMM   99.26     LegendNANA
12:00 6.3 2.0 74 0.0 LegendMM LegendMM   99.15     LegendNANA
13:00 6.3 2.2 75 0.0 LegendMM LegendMM   99.03     LegendNANA
14:00 6.3 2.7 78 0.0 LegendMM LegendMM   98.97     LegendNANA
15:00 5.3 3.1 86 0.7 LegendMM LegendMM   98.93     LegendNANA
16:00 5.2 3.3 87 0.5 LegendMM LegendMM   98.88     LegendNANA
17:00 5.6 3.4 86 0.0 LegendMM LegendMM   98.85     LegendNANA
18:00 5.3 3.4 87 0.0 LegendMM LegendMM   98.72     LegendNANA
19:00 4.9 3.3 89 0.4 LegendMM LegendMM   98.69     LegendNANA
20:00 4.9 3.3 89 0.0 LegendMM LegendMM   98.72     LegendNANA
21:00 4.9 3.3 90 0.2 LegendMM LegendMM   98.74     LegendNANA
22:00 4.4 3.0 91 0.0 LegendMM LegendMM   98.75     LegendNANA
23:00 4.6 2.8 88 0.2 LegendMM LegendMM   98.81     LegendNANA

Notes on Data Quality.

Legend

  • E = Estimated
  • M = Missing
  • NA = Not Available*
  • [empty] = Indicates an unobserved value
Date modified: